Terminal Aerodrome Forecast
Issued by NWS Jackson, MS

Current Version | Previous Version | Text Only | Print | Product List | Glossary On
Versions: 1 2 3 4 5 6 7 8 9 10 11 12 13 14 15 16
000
FTUS44 KJAN 221700
TAFGLH
TAF
KGLH 221726Z 2218/2318 02010KT P6SM SKC=

USA.gov is the U.S. government's official web portal to all federal, state and local government web resources and services.